Location: Madrid
(40.4000°N, 3.6830°W)
Time: 14:35:50
(UTC+02:00)

ISS - Pass Details

Date: 27 March 2020
Orbit: 416 x 423 km, 51.6° (Epoch: 02 April)

Event Time Altitude Azimuth Distance (km) Brightness Sun altitude
Rises 22:16:20 0° 312° (NW) 2,361 1.2 -29.7°
Reaches altitude 10° 22:18:55 10° 332° (NNW) 1,497 -0.2 -30.1°
Enters shadow 22:19:13 11° 337° (NNW) 1,414 -0.4 -30.1°
